Connecta IOT-11

operational
NORAD ID: 64557 Int'l Des: 2025-135 Owner: PLNSST Country: TR
LEOCIRCULARRETROGRADESSO

About Connecta IOT-11

Description loading...

Live Position

Loading 3D Globe...

Upcoming Passes

Altitude History

Altitude vs Time

uPlot chart will show altitude changes over time

Two-Line Element Set

1 64557U 25135AF 25312.56687047 .00008590 00000-0 40796-3 0 9990
2 64557 97.4578 65.1443 0002657 74.9196 285.2332 15.19474418 21347
Epoch: Nov 8, 2025 • Age: 39 hours

Current Status

Altitude 511.1 km
Velocity 7.61 km/s
Sub-Earth Point -0.01°S, 132.27°E
Launch Date Jun 23, 2025
Age 0.3 years
Type other

Technical Details

Classification Payload
Mass 10.00 kg
Dry Mass 10.00 kg
Total Mass 10.00 kg
Length 0.30 m
Diameter 0.20 m
Span 0.30 m
Shape Box
Manufacturer PLNSST
Bus Type Cubesat 6U
Phase Status In Orbit
Owner/State PLNSST/TR

Large Constellations

Loading constellations...